Weather History for Syracuse, NY

Change the Weather History Date:

Saturday, May 17, 2014

  Actual Average Record
Temperature  
Mean Temperature 49 °F 58 °F  
Max Temperature 57 °F 69 °F 91 °F (1977)
Min Temperature 40 °F 47 °F 30 °F (1983)
Degree Days  
Heating Degree Days 16 8  
Month to date heating degree days 126 170  
Since 1 July heating degree days 6991 6505  
Cooling Degree Days 0 1  
Month to date cooling degree days 32 7  
Year to date cooling degree days 33 11  
Moisture  
Dew Point 38 °F    
Average Humidity 74    
Maximum Humidity 100    
Minimum Humidity 47    
Precipitation  
Precipitation 0.00 in 0.11 in 0.91 in (1916)
Month to date precipitation 3.43 1.70  
Year to date precipitation 17.10 12.41  
Snow  
Snow 0.00 in 0.00 in 1.20 in (1973)
Month to date snowfall 0.0 0.1  
Since 1 July snowfall 132.0 123.8  
Snow Depth 0.00 in    
Sea Level Pressure  
Sea Level Pressure 30.05 in    
Wind  
Wind Speed 6 mph (West)    
Max Wind Speed 17 mph    
Max Gust Speed 24 mph    
Visibility 10 miles    
Events      
T = Trace of Precipitation, MM = Missing Value Source: NWS Daily Summary

Daily Weather History Graph

Daily Weather History Graph

Search for Another Location

Airport:

Trip Planner

Search our weather history database for the weather conditions in past years. The results will help you decide how hot, cold, wet, or windy it might be!

Date:

Astronomy

May. 17, 2014 Rise Set
Actual Time 5:38 AM EDT 8:23 PM EDT
Civil Twilight 5:05 AM EDT 8:56 PM EDT
Nautical Twilight 4:24 AM EDT 9:38 PM EDT
Astronomical Twilight 3:36 AM EDT 10:26 PM EDT
Moon 11:21 PM EDT (5/17) 8:19 AM EDT (5/17)
Length of Visible Light 15h 50m
Length of Day
14h 44m
Waning Gibbous, 89% of the Moon is Illuminated
May 17
Waning Gibbous
May 21
Last Quarter
May 28
New
Jun 5
First Quarter
Jun 13
Full

Hourly Weather History & Observations

Time (EDT) Temp. Windchill Dew Point Humidity Pressure Visibility Wind Dir Wind Speed Gust Speed Precip Events Conditions
12:54 AM 43.0 °F - 41.0 °F 93% 29.96 in 10.0 mi Calm Calm - N/A   Overcast
1:54 AM 42.1 °F - 41.0 °F 96% 29.94 in 10.0 mi Calm Calm - N/A   Scattered Clouds
2:54 AM 39.9 °F 36.7 °F 39.9 °F 100% 29.93 in 10.0 mi WSW 4.6 mph - N/A   Mostly Cloudy
3:54 AM 41.0 °F 37.1 °F 39.9 °F 96% 29.94 in 10.0 mi WSW 5.8 mph - N/A   Mostly Cloudy
4:54 AM 43.0 °F 38.8 °F 42.1 °F 97% 29.96 in 10.0 mi WSW 6.9 mph - N/A   Mostly Cloudy
5:54 AM 43.0 °F 37.7 °F 41.0 °F 93% 29.97 in 10.0 mi West 9.2 mph - N/A   Overcast
6:18 AM 42.8 °F 38.6 °F 39.2 °F 87% 29.98 in 10.0 mi WNW 6.9 mph - N/A   Overcast
6:54 AM 43.0 °F 39.5 °F 39.0 °F 86% 29.99 in 10.0 mi WNW 5.8 mph - N/A   Mostly Cloudy
7:54 AM 44.1 °F 37.7 °F 37.0 °F 76% 30.01 in 10.0 mi West 12.7 mph - N/A   Mostly Cloudy
8:54 AM 46.9 °F - 37.0 °F 68% 30.02 in 10.0 mi West 13.8 mph - N/A   Scattered Clouds
9:54 AM 48.9 °F - 37.0 °F 64% 30.04 in 10.0 mi West 10.4 mph - N/A   Scattered Clouds
10:54 AM 51.1 °F - 36.0 °F 56% 30.04 in 10.0 mi West 15.0 mph 21.9 mph N/A   Scattered Clouds
11:54 AM 52.0 °F - 36.0 °F 54% 30.05 in 10.0 mi West 9.2 mph 20.7 mph N/A   Mostly Cloudy
12:54 PM 53.1 °F - 35.1 °F 50% 30.06 in 10.0 mi West 15.0 mph 20.7 mph N/A   Mostly Cloudy
1:54 PM 53.1 °F - 35.1 °F 50% 30.08 in 10.0 mi West 11.5 mph - N/A   Mostly Cloudy
2:54 PM 53.1 °F - 36.0 °F 52% 30.09 in 10.0 mi WNW 5.8 mph - N/A   Mostly Cloudy
3:54 PM 53.1 °F - 36.0 °F 52% 30.09 in 10.0 mi Variable 3.5 mph - N/A   Overcast
4:54 PM 54.0 °F - 37.0 °F 53% 30.10 in 10.0 mi Variable 3.5 mph - N/A   Mostly Cloudy
5:54 PM 55.0 °F - 36.0 °F 49% 30.10 in 10.0 mi SW 4.6 mph - N/A   Scattered Clouds
6:54 PM 55.9 °F - 37.0 °F 49% 30.10 in 10.0 mi NNW 6.9 mph - N/A   Scattered Clouds
7:54 PM 52.0 °F - 37.0 °F 57% 30.12 in 10.0 mi NW 4.6 mph - N/A   Partly Cloudy
8:54 PM 48.9 °F - 37.9 °F 66% 30.14 in 10.0 mi NNW 4.6 mph - N/A   Scattered Clouds
9:54 PM 46.9 °F - 37.9 °F 71% 30.15 in 10.0 mi Calm Calm - N/A   Partly Cloudy
10:54 PM 42.1 °F - 37.9 °F 85% 30.16 in 10.0 mi Calm Calm - N/A   Clear
11:54 PM 44.1 °F - 39.0 °F 82% 30.16 in 10.0 mi Calm Calm - N/A   Partly Cloudy